GEFSGL_500_meanwind_006.txt.gz
Wind_Speed
16 16 15 16 16 17 18 20 21 22 23 25 27 29 29 29 29 28 28 27 27 27 27 30 32 30 25 23 23 23 24 25 25 24 23 22 22 20 18 17 17 17 18
17 17 17 17 18 18 18 19 21 23 23 24 25 26 27 27 26 25 24 21 22 23 25 28 31 29 24 21 20 22 23 23 25 25 23 21 20 20 18 17 17 16 16
20 19 18 18 18 18 17 18 19 21 22 22 22 21 22 23 23 23 22 21 20 20 21 23 24 23 22 20 19 20 21 23 25 23 21 19 18 19 18 16 16 13 13
24 23 21 19 18 17 17 18 19 20 21 20 20 21 22 21 21 21 22 23 22 20 19 19 21 23 23 21 20 20 21 22 21 20 20 19 20 20 18 16 14 11 11
27 26 24 23 21 20 20 19 19 18 19 21 20 22 24 24 21 21 22 23 23 23 23 22 24 25 25 24 21 20 20 22 21 21 21 21 23 22 19 17 14 12 11
27 26 26 26 26 24 23 21 20 19 19 19 19 19 22 23 23 22 21 22 24 26 26 26 27 27 26 24 21 19 20 22 22 21 22 23 25 24 20 18 15 13 11
26 26 27 28 29 27 25 24 23 22 21 19 18 19 20 22 23 23 22 22 23 25 28 30 30 28 27 26 23 21 21 22 22 22 22 22 23 23 21 19 17 15 13
25 27 28 29 29 28 27 27 27 25 22 20 20 19 20 22 23 24 24 24 24 25 26 28 31 31 29 26 24 23 23 23 24 24 24 23 22 21 20 19 18 16 14
24 24 25 27 27 27 27 29 29 27 25 23 22 22 21 21 23 24 24 23 24 24 25 25 28 29 28 27 26 25 25 25 25 25 25 26 25 23 21 20 19 18 15
23 23 25 27 28 28 30 31 31 29 27 26 24 24 24 22 21 24 25 24 24 24 24 24 24 25 27 28 28 27 26 26 28 28 27 29 29 27 25 23 21 19 16
25 26 28 30 30 31 32 32 31 30 28 25 24 24 24 23 21 21 23 24 25 26 25 24 23 23 26 28 29 28 27 28 30 30 28 29 30 29 28 26 23 20 18
25 26 27 29 30 31 32 32 32 30 27 26 25 25 24 23 21 20 20 22 25 27 27 27 26 26 27 28 28 28 28 28 29 31 29 30 31 31 30 29 27 23 20
23 24 26 28 29 30 30 30 30 28 25 25 25 26 25 23 22 21 21 21 22 25 27 28 28 29 29 29 29 29 29 30 30 31 31 30 32 33 34 32 29 26 23
20 20 20 21 23 25 26 26 26 24 23 24 24 25 24 22 22 21 21 21 20 21 22 25 27 29 29 29 29 30 30 30 30 31 34 34 35 35 35 34 31 29 27
16 14 14 15 14 13 14 16 18 20 21 21 21 21 21 22 22 21 21 22 22 22 23 24 25 27 28 28 28 28 29 29 29 29 32 35 38 39 38 36 34 31 29
13 12 12 13 10 4 2 8 13 16 17 18 18 19 20 21 21 21 21 22 23 23 23 23 23 24 24 25 25 25 26 27 29 30 31 34 38 40 41 38 35 33 32
11 10 10 10 10 7 5 6 9 11 13 14 15 16 18 19 20 20 20 20 22 22 23 24 25 26 25 25 25 25 25 25 26 25 27 32 36 38 37 34 33 33 34
9 9 8 8 8 7 6 5 6 7 10 11 12 14 15 16 17 18 19 20 21 22 24 26 27 28 28 28 27 27 25 25 26 25 23 24 26 28 28 29 30 32 34
8 8 8 8 8 7 7 6 4 4 6 8 9 11 12 13 14 15 16 18 19 21 23 25 26 28 29 30 30 29 28 27 26 26 25 25 26 26 26 27 30 31 32
7 7 7 7 7 7 6 6 5 3 1 2 4 6 7 8 10 11 12 14 16 19 22 24 26 27 28 29 30 30 29 28 28 28 30 31 32 32 32 32 32 33 34
6 6 6 6 6 6 6 7 7 6 5 3 1 1 3 5 6 7 9 10 13 15 18 20 21 23 25 26 27 27 28 28 28 30 32 33 34 34 34 33 33 32 33
6 5 5 5 5 6 6 6 7 7 6 4 3 2 2 3 4 5 7 8 10 11 12 11 11 13 14 17 19 21 22 23 24 26 29 32 33 32 31 32 33 34 34
7 7 6 6 6 6 6 6 7 7 6 5 4 4 4 4 5 5 6 8 9 10 10 8 6 6 7 9 11 14 17 18 19 19 21 23 26 29 31 32 33 34 35
10 9 9 8 8 7 7 7 7 8 7 6 5 5 5 5 6 6 7 8 9 9 9 8 7 6 7 8 10 12 14 16 19 20 21 22 23 25 28 29 31 33 35
12 12 12 11 10 10 9 9 9 9 9 9 9 8 8 8 8 8 9 9 10 10 9 9 8 8 9 10 11 13 14 15 17 19 22 22 23 24 25 26 27 27 27
14 14 14 13 13 12 12 12 12 12 12 12 11 11 11 11 11 11 11 11 11 10 9 8 7 7 8 10 10 11 13 14 14 14 17 20 22 23 23 23 23 23 24

GEFSGL_500_meanwind_012.txt.gz
Wind_Speed
16 15 14 14 15 16 16 17 18 18 19 20 20 21 23 25 27 30 32 33 32 32 33 33 33 33 32 31 29 27 25 24 23 23 22 21 20 19 19 19 19 19 19
18 17 17 17 18 18 18 19 19 20 20 20 21 22 23 24 26 28 30 32 32 33 34 35 35 36 35 34 32 30 28 27 25 25 25 24 22 21 20 20 20 20 19
18 19 20 21 21 20 20 20 20 20 20 20 21 22 23 24 24 26 28 30 32 34 35 35 36 36 35 35 34 34 32 30 28 27 26 24 22 20 20 21 21 20 19
18 20 21 22 22 22 22 21 20 20 19 19 20 21 22 22 23 24 25 28 30 32 33 33 34 34 33 33 33 34 34 32 30 28 26 24 22 21 21 21 20 20 19
21 21 22 22 22 23 23 22 21 21 20 20 20 21 22 22 22 24 24 26 28 28 29 29 30 31 31 31 32 33 33 32 30 28 25 24 23 21 20 21 21 20 21
26 25 24 23 23 23 23 23 22 22 22 21 21 21 21 21 22 23 24 25 26 27 28 29 29 29 29 29 31 32 32 31 29 26 25 24 23 21 21 22 22 22 23
27 27 25 24 24 24 24 24 24 24 24 24 23 22 22 22 22 22 23 24 25 28 29 29 29 28 28 28 30 30 30 29 28 26 25 25 25 23 22 21 21 23 25
26 25 25 24 24 25 25 25 25 25 25 25 25 23 23 23 23 23 23 24 25 26 28 29 29 29 28 28 29 29 29 29 28 27 27 27 27 25 24 22 21 23 25
25 25 25 24 24 24 24 25 25 24 24 25 25 24 23 24 24 25 26 25 25 26 27 28 28 30 30 30 30 30 30 30 29 28 28 28 28 27 26 25 24 23 24
25 25 26 25 25 25 26 27 27 27 27 25 25 24 25 25 25 26 27 27 26 25 26 28 28 30 32 32 32 32 32 32 31 31 31 31 30 29 28 27 26 25 25
25 25 25 26 26 27 28 28 29 29 30 29 28 27 26 26 26 27 28 27 25 24 25 26 28 30 32 33 34 34 34 34 34 33 34 33 32 30 30 30 30 29 28
23 22 23 23 24 26 27 28 29 30 30 30 29 28 27 26 26 27 27 27 25 24 23 24 27 30 31 33 34 35 36 36 37 36 35 34 33 33 33 33 33 33 31
19 19 19 20 21 23 25 27 28 28 28 28 28 28 27 27 27 27 27 26 25 24 23 23 24 27 29 30 31 32 33 35 37 37 36 35 35 35 35 35 35 34 32
16 16 16 17 18 20 21 22 23 24 24 24 25 26 27 26 26 26 26 25 24 24 23 23 23 24 25 25 26 28 29 30 32 32 33 34 35 36 36 36 37 36 35
14 14 14 15 17 17 17 15 13 15 17 17 18 19 20 22 23 23 24 24 23 23 22 22 22 21 21 21 21 23 25 25 26 27 29 31 33 35 36 37 37 37 36
13 13 14 14 15 15 16 12 6 4 8 9 11 13 15 17 19 21 22 22 22 22 22 22 21 20 20 19 20 21 23 25 28 29 30 32 34 35 37 38 38 37 37
12 12 13 14 15 15 15 13 9 4 2 5 7 10 12 14 16 17 18 19 20 21 21 22 22 22 21 21 21 22 23 24 26 28 30 31 33 34 35 36 36 37 37
11 11 12 13 14 14 14 12 10 6 2 2 4 7 9 11 13 15 16 17 18 19 20 20 21 22 23 23 24 25 26 27 28 28 29 29 30 31 32 33 35 36 37
10 10 11 11 12 13 13 12 10 7 4 1 2 4 6 8 10 12 14 15 16 18 19 20 21 23 24 26 27 28 29 30 30 30 30 30 29 29 29 31 32 34 37
10 10 10 11 11 11 11 11 10 8 5 3 1 2 4 6 8 10 11 13 15 16 18 19 21 23 25 26 28 30 31 32 32 32 32 31 30 29 30 30 30 31 33
10 10 10 10 10 10 10 10 9 8 6 4 3 1 1 3 5 6 8 10 12 13 15 17 18 19 21 22 24 26 28 30 31 32 32 32 31 30 30 30 30 29 29
9 10 10 9 9 9 9 8 8 7 6 5 4 3 2 2 3 4 5 7 9 11 13 15 16 17 17 18 19 20 21 23 24 26 27 28 29 30 30 30 30 30 30
10 10 10 9 9 9 8 8 8 8 7 6 5 5 4 4 4 4 5 7 8 10 12 13 13 13 13 13 13 14 14 16 17 19 21 23 26 29 30 31 32 33 33
11 11 11 10 10 10 10 10 10 10 9 9 9 8 7 7 7 7 7 8 8 9 9 10 10 10 10 10 10 11 12 13 13 14 16 17 19 22 25 28 31 33 34
12 12 13 13 13 12 12 12 12 12 12 12 12 11 11 10 10 10 10 10 10 10 10 10 9 9 8 9 10 10 11 11 12 12 13 15 16 18 20 22 23 24 26
13 14 15 15 15 15 15 15 15 15 15 15 14 14 13 13 13 13 13 13 13 13 13 12 11 10 9 9 9 9 9 9 10 11 12 13 15 16 19 21 22 23 24

GEFSGL_500_meanwind_018.txt.gz
Wind_Speed
23 22 21 20 19 18 16 16 15 15 16 17 17 17 18 19 20 21 23 28 32 34 35 36 36 35 33 33 31 30 29 28 26 25 24 23 23 22 22 21 20 21 21
22 21 20 20 20 20 19 18 17 17 17 18 18 18 18 19 20 20 21 23 28 32 33 33 34 34 32 33 33 32 32 31 30 28 27 26 25 25 25 24 23 23 23
21 20 20 20 21 21 21 21 20 19 19 19 19 19 19 20 21 21 21 22 25 29 32 32 32 33 33 34 35 34 34 34 33 33 31 29 28 27 27 27 26 25 25
21 21 21 21 22 22 23 23 22 22 22 21 21 20 20 21 23 23 24 24 25 27 30 32 33 34 35 35 35 35 35 35 34 34 34 33 31 29 28 28 27 26 26
22 23 23 23 23 23 23 24 24 24 24 23 23 22 22 23 23 24 25 25 26 28 30 31 32 33 35 35 35 36 36 36 36 36 36 36 35 33 32 30 28 27 27
24 24 25 24 23 23 23 24 24 25 25 25 25 24 24 24 24 24 24 25 26 27 28 30 31 32 33 34 35 36 36 36 36 36 36 37 36 36 35 32 30 28 28
23 24 24 23 23 23 23 23 24 24 25 25 26 26 25 25 24 25 24 25 26 26 27 27 28 29 31 32 34 35 35 35 35 35 34 35 36 36 35 32 30 28 27
23 23 23 22 23 23 23 23 23 24 24 25 26 26 26 26 25 25 25 25 26 26 26 26 26 26 26 29 31 32 32 32 33 34 34 35 35 35 33 30 29 29 29
22 22 22 23 23 23 23 23 23 23 23 24 25 26 26 26 26 26 26 26 26 25 25 25 25 25 25 25 27 29 31 31 32 33 35 35 35 35 33 31 31 31 31
22 22 22 23 23 23 23 24 24 24 24 25 25 25 26 26 25 25 26 27 26 25 25 25 24 24 24 25 26 28 30 31 31 32 34 35 34 33 33 32 32 33 33
21 21 21 21 21 21 21 22 23 24 25 26 27 27 27 27 26 26 26 26 26 26 25 24 24 23 22 23 25 27 28 29 31 32 33 34 33 32 32 32 33 34 33
19 19 18 18 18 18 19 20 22 24 26 27 28 29 28 28 27 27 27 26 26 26 25 24 23 22 22 23 24 25 26 27 28 30 31 32 33 33 33 34 34 35 34
16 16 15 15 15 16 18 19 21 23 25 27 28 29 29 29 28 27 27 27 27 26 25 24 22 22 22 22 22 23 25 26 27 28 30 32 33 34 35 36 37 37 36
14 13 12 13 14 15 16 17 19 21 22 23 25 26 27 27 26 27 27 26 26 25 24 23 22 22 22 21 21 21 22 23 24 26 29 31 32 34 35 36 38 39 39
11 10 11 12 13 14 15 16 16 16 15 16 17 20 22 22 23 24 24 25 25 24 22 22 22 22 21 21 21 21 21 20 21 24 27 29 32 35 37 37 38 40 41
9 10 11 11 12 13 14 14 14 14 10 7 7 10 13 15 17 18 19 21 21 21 20 20 20 20 20 21 21 21 21 20 20 22 24 28 31 34 35 37 38 39 40
9 10 11 11 12 12 13 13 13 12 10 6 2 3 6 9 11 13 14 15 17 17 17 18 18 19 19 20 21 21 21 22 22 22 23 25 27 29 32 33 35 37 37
9 10 11 11 11 12 12 12 12 11 10 7 4 2 2 4 5 7 8 10 12 13 15 16 17 18 19 20 21 22 22 23 23 24 24 25 26 28 29 30 32 34 35
10 10 10 11 11 11 11 11 11 10 9 7 5 3 2 2 3 4 5 7 8 10 12 14 16 17 19 20 21 22 23 23 24 25 26 27 28 29 30 31 32 33 34
10 10 10 9 9 9 9 10 10 9 8 7 6 5 3 2 1 2 4 5 7 9 11 13 14 16 18 19 20 22 23 24 25 26 27 28 30 31 32 33 34 34 34
10 10 9 9 9 9 9 9 9 9 9 8 7 6 5 4 3 1 1 3 5 7 9 11 12 14 15 17 18 20 21 23 24 24 26 27 28 30 32 33 34 35 35
10 10 10 10 10 10 10 10 10 10 9 9 8 7 7 6 5 3 2 2 4 5 7 8 10 11 13 14 16 17 18 19 20 22 24 25 26 27 28 30 31 33 34
11 11 11 12 12 12 12 12 12 12 12 11 10 10 9 8 7 6 6 5 5 5 6 7 8 9 10 11 13 14 15 16 18 19 20 20 21 22 23 24 25 27 29
11 11 12 12 12 13 13 13 13 14 13 13 12 12 11 10 10 9 9 8 8 7 7 7 7 7 8 9 10 12 13 14 15 16 16 16 17 18 19 20 21 23 25
11 12 12 12 13 13 14 14 14 15 15 15 14 14 13 13 12 12 11 11 11 10 10 10 9 9 9 9 10 11 12 13 14 14 14 15 15 16 16 17 19 20 22
11 12 12 13 13 14 15 16 16 16 16 17 17 17 17 16 16 15 15 14 14 13 13 13 12 12 12 12 12 12 12 12 13 13 13 14 14 15 16 16 17 19 20

GEFSGL_500_meanwind_024.txt.gz
Wind_Speed
21 21 21 20 20 19 19 18 18 18 18 18 17 17 17 17 18 18 19 19 20 20 22 24 26 29 30 32 32 32 31 29 26 24 22 21 19 18 18 17 18 18 19
22 22 22 21 21 20 19 18 18 19 19 19 19 19 18 18 19 19 20 20 20 19 20 21 22 26 29 31 32 32 32 31 29 27 25 24 23 22 21 20 19 19 19
22 23 23 23 23 22 21 20 20 20 20 21 21 20 20 20 20 20 21 21 21 20 20 19 20 23 26 30 31 32 33 33 31 29 28 27 25 25 24 23 22 21 20
24 23 23 24 23 23 22 22 22 22 22 22 22 22 22 22 22 22 22 22 22 21 21 21 21 22 24 26 28 30 32 33 32 31 29 28 28 27 27 28 26 24 23
24 24 24 24 23 23 23 23 23 23 23 23 23 22 23 23 23 23 23 23 23 23 23 23 22 21 23 24 26 28 30 31 31 31 30 30 30 30 29 30 29 28 26
24 24 24 24 23 23 23 24 23 23 24 24 24 23 23 23 24 24 23 23 23 23 23 23 23 22 23 24 25 26 28 30 31 31 31 31 30 31 30 29 29 29 29
24 24 24 24 24 24 24 24 24 24 24 24 24 24 23 23 24 24 24 24 24 24 23 23 23 23 22 23 24 25 26 28 30 31 31 31 31 30 31 30 30 30 31
22 22 23 23 24 24 24 24 25 24 24 24 24 24 24 23 24 24 25 25 25 25 24 24 24 23 23 22 23 25 25 26 27 28 30 31 31 31 31 31 31 31 30
21 22 22 23 23 24 24 24 25 24 24 24 24 25 24 24 25 25 25 26 26 25 25 24 24 24 24 24 23 24 24 25 26 27 28 30 32 32 32 32 32 32 30
20 21 21 22 22 23 23 23 23 23 23 24 24 25 25 24 25 26 26 26 26 27 26 26 25 25 24 24 24 23 24 25 25 25 26 28 30 31 32 32 32 33 32
19 20 21 21 21 21 21 21 21 22 23 23 24 25 25 25 26 27 27 27 27 27 27 26 25 25 25 24 24 23 23 24 25 25 25 26 28 29 30 31 32 33 33
19 20 20 20 19 18 18 19 20 21 21 22 24 25 27 27 27 28 28 28 27 26 26 25 25 24 24 23 23 23 23 23 24 24 25 25 26 27 28 30 31 33 35
18 18 18 17 17 17 17 18 19 19 21 22 23 25 26 27 27 28 29 28 27 26 25 24 23 23 23 22 22 22 22 23 23 23 24 25 26 26 27 28 29 31 32
17 17 16 16 16 16 16 17 17 18 19 20 20 21 22 23 25 25 27 27 26 26 25 24 23 22 21 21 21 21 21 22 22 21 22 23 23 24 26 26 27 28 31
16 16 15 16 16 16 16 16 16 17 17 18 18 18 18 18 18 20 21 22 24 24 23 22 22 22 22 21 21 21 21 21 21 21 21 21 22 22 23 24 26 27 29
16 16 16 16 15 15 15 15 15 16 16 16 15 14 11 10 11 13 15 16 17 18 19 19 19 20 20 20 21 21 21 21 21 21 22 22 22 22 23 24 26 27 29
16 16 16 15 15 14 14 14 14 13 14 14 13 10 7 4 4 6 8 10 11 13 14 15 16 17 18 18 18 19 20 20 21 21 22 22 23 24 25 26 27 28 29
16 15 15 14 13 13 12 12 12 12 11 11 11 9 6 4 2 1 3 4 6 8 9 11 12 13 15 16 17 18 18 19 20 21 22 23 24 25 26 27 28 29 30
15 14 13 12 11 11 11 11 11 10 10 10 10 9 7 6 5 4 3 2 2 3 5 7 9 10 11 13 15 16 18 19 20 22 23 25 26 26 27 28 29 30 31
14 13 12 11 11 11 10 10 10 10 10 10 10 9 8 7 6 5 4 3 1 1 3 5 6 8 10 12 13 15 17 19 20 22 24 25 26 27 28 29 30 31 32
14 13 13 12 12 11 11 11 11 11 11 11 11 10 10 9 8 7 6 5 4 4 3 4 5 7 9 11 12 14 16 17 19 21 23 24 25 27 28 29 30 31 32
13 14 14 14 14 14 14 14 13 13 13 13 13 13 12 11 10 9 9 8 7 7 6 6 6 7 8 10 11 13 14 16 17 19 20 22 24 25 26 27 29 30 30
14 14 14 15 15 15 15 15 15 15 15 15 15 15 15 14 13 12 11 10 10 9 8 8 8 8 9 9 10 11 13 14 16 17 19 21 22 23 24 25 25 26 27
13 13 13 13 13 13 14 14 14 14 15 15 15 15 15 15 15 15 14 13 13 12 12 12 11 11 11 11 12 12 13 14 15 17 18 19 20 21 22 23 24 24 25
11 12 12 12 12 12 12 13 13 14 15 15 15 16 16 16 16 16 16 16 15 15 15 15 14 14 14 14 14 15 15 16 16 18 19 20 21 21 21 22 22 23 23
9 10 10 10 10 10 11 12 12 13 14 14 15 15 16 16 17 17 16 16 16 16 16 16 16 16 17 17 17 18 18 19 20 21 22 22 22 22 22 22 22 22 22

GEFSGL_500_meanwind_030.txt.gz
Wind_Speed
18 20 20 21 21 20 20 20 19 19 19 19 18 18 18 18 17 17 17 17 17 17 18 18 18 19 21 22 25 27 28 29 29 28 27 25 23 22 21 20 20 20 20
19 20 21 22 22 21 21 20 20 21 20 20 19 18 18 18 17 17 17 17 16 17 17 16 17 18 20 21 23 27 29 30 30 30 30 29 27 25 23 22 22 21 21
20 21 22 23 22 21 21 21 21 21 21 20 19 18 18 18 18 18 18 18 18 18 17 17 17 17 18 19 21 24 27 29 31 32 33 32 31 29 27 25 24 24 23
22 22 23 23 22 20 19 20 20 20 20 19 19 19 19 19 19 19 19 19 19 19 18 18 18 18 19 19 19 21 25 28 30 32 34 34 34 33 31 29 28 27 26
22 22 23 22 21 19 18 19 19 19 19 19 18 18 18 19 19 19 19 19 20 20 20 19 19 18 19 20 20 21 23 26 28 31 33 34 34 34 34 34 32 30 28
22 22 20 20 18 17 17 18 18 19 19 19 19 19 19 19 20 20 20 21 21 21 21 20 20 20 20 20 21 21 22 24 25 28 31 33 34 34 35 36 35 32 31
19 19 18 18 17 16 17 19 19 20 20 19 19 19 19 19 19 20 20 21 21 21 22 22 22 21 20 20 21 21 21 22 24 25 27 30 32 34 35 35 35 34 34
16 17 18 18 18 18 19 19 20 20 20 20 19 19 19 19 19 19 20 21 21 21 21 21 22 22 21 21 21 21 21 22 24 26 27 27 29 32 34 35 36 35 35
16 17 18 18 19 19 19 19 20 20 20 20 19 19 19 19 19 20 20 20 21 21 21 21 22 22 22 22 22 22 22 22 22 23 25 27 27 29 31 33 34 34 34
17 18 19 19 19 20 19 19 19 19 20 20 20 20 20 20 20 20 21 21 22 22 22 22 23 23 23 23 23 22 22 22 22 22 24 25 26 27 29 30 32 33 34
18 18 19 19 19 19 19 19 19 19 19 19 19 20 20 20 20 21 22 22 22 22 23 23 23 24 24 24 23 23 23 23 23 23 24 25 25 27 28 30 31 32 33
18 19 19 18 18 18 18 18 18 18 19 19 19 19 20 20 22 22 22 23 23 23 23 23 24 24 23 23 23 24 24 24 24 24 25 26 26 27 28 30 31 32 33
18 18 18 17 17 17 17 17 17 18 18 19 19 19 19 20 21 21 21 21 22 23 23 23 22 23 23 23 22 23 23 24 24 25 25 26 27 28 28 29 30 31 32
17 16 16 16 16 16 16 17 17 17 17 18 18 18 18 19 19 19 20 20 21 22 23 23 22 22 22 22 22 22 22 23 23 24 24 25 26 27 28 28 29 30 31
16 15 15 14 14 15 15 15 15 16 16 16 16 16 16 16 15 15 16 16 18 19 20 21 21 21 21 21 21 21 21 22 22 23 23 24 25 26 27 27 27 29 30
15 14 14 13 13 13 13 13 14 14 14 14 13 14 13 12 11 10 10 10 12 14 15 16 17 18 18 19 20 20 20 21 22 22 23 24 25 26 27 28 28 29 30
15 14 13 13 13 12 12 12 12 12 12 11 11 11 11 10 8 6 5 5 6 7 9 10 12 14 15 16 18 19 20 20 21 22 23 24 25 26 27 28 30 30 31
15 15 14 14 13 12 12 11 11 11 10 10 11 11 10 9 8 6 5 3 2 2 3 4 6 9 11 12 14 16 17 19 20 21 23 24 26 27 28 29 30 31 32
16 16 15 15 14 13 13 12 12 12 11 11 11 11 10 9 9 8 7 6 4 3 2 2 3 5 7 9 11 13 15 17 19 20 22 23 25 26 28 29 31 32 33
17 17 16 16 15 15 15 15 14 14 14 13 13 12 12 11 10 10 9 8 7 6 5 4 4 4 5 6 8 10 12 14 15 17 19 22 23 25 27 29 30 32 33
17 17 17 17 17 17 17 17 17 16 16 15 15 14 14 13 13 12 11 11 9 8 8 7 6 5 5 6 7 8 10 11 13 15 18 20 22 24 26 27 29 30 32
17 17 17 17 17 17 17 17 18 18 17 17 17 16 16 15 15 14 14 13 13 12 11 10 9 8 8 8 8 9 10 11 12 14 16 18 20 22 24 25 27 28 30
16 16 16 16 16 16 17 17 18 18 18 18 18 17 17 17 17 16 16 15 15 14 14 14 13 13 12 11 11 12 12 13 13 14 16 17 18 19 21 22 24 26 27
15 15 15 15 15 15 15 16 17 17 17 17 18 18 17 17 17 17 17 17 16 16 16 16 16 16 15 15 15 15 15 15 16 16 17 18 19 19 20 21 22 23 24
13 13 13 13 13 14 14 15 15 16 16 16 17 17 17 17 17 17 17 17 17 17 17 17 17 18 18 18 18 18 18 18 18 18 19 20 20 20 20 20 20 20 21
10 11 11 12 12 12 13 13 13 14 14 15 15 15 15 16 16 16 17 17 17 17 18 18 18 18 19 19 20 20 20 20 20 20 21 22 22 21 21 21 21 21 20

GEFSGL_500_meanwind_036.txt.gz
Wind_Speed
15 14 14 15 17 18 20 21 22 23 24 25 25 25 24 24 24 23 23 22 23 23 22 22 22 21 21 22 25 27 27 27 27 27 28 28 26 25 23 22 21 21 21
11 13 14 16 18 20 22 23 23 24 25 25 25 25 25 24 24 24 23 22 22 22 22 21 21 19 19 19 21 24 25 26 27 28 29 29 28 28 26 25 24 23 22
12 14 16 19 20 22 23 24 24 24 24 24 24 24 24 24 23 23 23 22 22 22 22 21 21 20 19 19 19 19 22 24 25 28 30 30 30 30 29 28 28 27 25
14 16 18 19 20 21 21 21 22 22 23 23 23 22 22 22 22 22 22 22 22 22 22 22 22 21 20 19 19 19 20 21 23 26 28 30 31 31 32 31 31 30 28
16 18 20 20 19 19 18 18 19 19 20 20 20 21 21 21 21 20 21 21 22 22 22 22 22 21 21 20 20 20 20 20 21 23 27 30 32 32 33 34 34 33 31
16 18 18 17 17 16 16 15 16 17 17 18 19 20 20 20 21 21 21 21 22 22 22 22 23 22 22 21 21 21 20 21 21 21 21 25 30 32 33 34 35 35 35
13 14 14 15 15 15 15 15 15 17 18 19 20 20 20 21 21 21 21 21 21 22 22 22 22 23 23 22 22 21 21 21 22 22 22 23 26 28 30 33 35 36 36
12 13 14 15 15 16 15 15 16 17 18 18 19 19 20 21 21 21 21 21 21 22 22 22 22 23 23 23 22 22 22 22 22 23 24 24 24 26 28 30 32 34 36
14 15 16 16 16 16 16 16 17 17 18 18 19 19 20 21 22 22 21 21 21 21 21 22 22 22 22 23 23 23 22 22 22 23 24 24 24 25 27 28 30 32 35
15 16 16 16 16 16 16 17 17 17 18 18 19 19 19 20 20 21 20 21 21 21 21 21 22 21 22 22 22 22 22 22 23 23 24 24 25 26 27 28 29 30 32
15 16 16 16 16 16 16 17 17 17 18 18 18 18 18 19 19 19 20 20 21 21 22 22 22 22 22 22 22 22 22 22 22 23 24 24 25 26 27 28 29 30 30
17 16 16 15 15 16 16 16 16 16 16 16 16 17 17 17 18 19 19 19 20 21 22 22 22 22 21 22 22 22 22 22 22 23 24 24 25 25 26 27 28 28 29
18 17 16 16 15 15 14 14 14 14 14 14 14 14 15 15 16 16 17 18 18 19 20 21 21 22 22 21 21 22 22 22 23 23 24 24 25 26 26 27 28 29 30
18 18 17 16 15 14 14 13 13 12 12 12 12 12 12 12 13 13 14 15 16 16 17 18 19 20 20 20 21 21 22 22 22 22 22 23 24 25 26 27 27 28 29
18 18 17 16 15 14 13 13 12 11 11 11 11 10 10 10 10 10 10 10 11 11 13 14 15 17 18 19 19 20 20 21 21 22 22 22 23 24 25 26 26 27 29
18 18 17 16 15 14 14 13 12 12 12 11 11 10 9 9 8 7 7 6 6 6 8 10 11 13 14 15 16 17 18 19 19 20 20 21 22 22 23 24 26 27 28
18 18 18 17 17 16 15 15 14 14 13 13 12 11 11 10 9 9 8 6 4 3 4 5 6 8 9 10 12 13 14 15 17 18 18 19 20 21 22 24 25 26 27
18 18 18 18 18 18 17 17 16 15 15 15 14 13 13 13 12 11 10 9 7 6 5 4 3 3 3 5 6 8 9 11 13 14 15 17 18 20 21 23 24 26 27
18 18 18 18 18 18 18 18 18 17 17 17 16 16 15 15 15 15 14 12 11 9 9 8 7 7 5 4 4 5 7 8 9 11 12 14 16 18 20 21 23 25 26
17 18 18 18 18 19 19 19 18 18 18 18 18 18 17 17 17 16 16 15 14 13 12 11 10 9 9 8 7 7 8 8 9 10 11 13 15 16 18 20 21 23 25
16 17 17 17 18 18 19 19 18 19 19 19 19 19 19 18 18 18 18 18 17 16 15 14 13 13 12 11 11 10 10 10 11 11 12 13 14 16 17 19 21 22 24
15 15 16 16 17 18 19 19 18 19 19 19 20 20 19 19 19 18 18 18 18 18 18 17 16 16 15 15 14 13 13 12 12 13 14 14 15 15 16 18 18 19 20
13 14 14 15 16 16 17 18 18 18 18 18 19 19 19 19 19 19 18 18 18 18 18 18 18 18 17 17 16 16 16 16 15 15 16 16 16 16 16 17 17 18 19
11 12 13 13 14 15 15 16 17 17 17 17 17 17 17 18 18 18 18 18 18 18 18 18 18 18 18 17 17 17 17 17 17 18 18 18 18 18 17 18 19 19 20
9 10 11 12 12 13 14 14 15 15 16 16 16 16 16 16 16 17 17 17 17 17 17 17 17 17 17 18 18 18 18 19 19 19 20 20 20 20 20 20 21 21 21
7 8 9 10 11 11 12 13 14 14 14 15 15 15 15 15 15 15 15 16 16 16 16 16 16 17 17 17 18 18 18 19 20 20 21 21 22 22 23 23 23 23 24

GEFSGL_500_meanwind_042.txt.gz
Wind_Speed
20 21 20 19 18 17 14 11 10 10 12 14 16 17 18 19 19 19 20 20 20 21 21 22 22 22 22 22 22 23 23 23 24 26 26 26 27 28 27 26 25 24 24
12 12 11 11 11 10 9 8 9 12 14 15 17 17 18 19 19 19 20 20 21 21 21 21 21 21 21 21 21 21 22 21 22 24 25 26 27 28 28 28 27 26 25
6 6 6 6 7 7 7 8 10 13 15 16 17 18 19 20 20 20 20 20 21 21 21 21 21 22 21 22 21 21 21 21 22 23 24 25 27 28 27 29 29 29 28
2 2 3 4 5 7 8 10 12 13 15 16 17 18 19 20 20 20 19 20 20 21 21 21 21 22 22 22 21 21 21 21 21 21 22 23 25 27 28 28 30 31 31
2 3 4 6 7 8 10 11 13 14 15 16 17 18 19 20 20 20 20 20 20 21 21 21 20 21 22 22 22 22 21 22 22 21 21 22 24 26 28 29 30 32 32
4 5 7 8 9 10 11 13 14 15 16 17 18 19 20 20 20 20 20 20 20 21 21 21 21 21 21 22 22 22 21 21 21 21 22 22 23 24 25 27 29 32 33
6 7 8 10 11 12 14 14 15 16 17 18 19 20 20 20 20 20 20 20 21 21 21 21 21 21 21 22 22 22 22 22 22 22 22 21 21 22 22 23 26 28 31
8 9 10 12 13 14 15 16 17 17 18 19 20 21 21 22 22 22 22 22 22 22 21 21 22 22 21 21 21 21 22 22 22 22 23 23 22 22 23 23 23 25 27
10 11 12 13 14 15 16 17 18 18 19 20 21 22 22 23 23 23 22 22 22 22 22 22 22 21 21 21 21 21 21 22 22 23 23 22 22 22 22 23 24 24 25
12 12 13 13 14 14 15 15 16 17 18 20 21 22 22 22 22 22 22 22 22 22 22 21 21 21 20 20 20 20 21 21 21 22 22 22 22 22 22 22 23 24 24
12 12 12 12 13 13 13 14 15 16 16 17 18 19 20 20 21 21 21 21 21 21 21 21 20 20 21 20 20 20 20 20 20 21 21 21 21 21 22 22 23 24 25
13 12 12 12 12 12 12 13 13 13 14 15 15 15 16 17 17 18 18 18 18 19 19 19 19 20 20 20 20 20 20 20 19 20 20 20 21 21 21 22 23 24 25
14 14 13 13 12 12 12 11 11 11 11 11 11 11 12 13 14 15 15 15 15 16 16 17 17 18 19 18 19 19 19 19 19 20 20 20 21 21 21 22 23 24 25
16 15 15 14 13 13 13 12 11 11 10 10 10 9 10 10 10 10 11 11 12 13 13 13 14 15 15 16 16 16 17 17 17 18 18 19 20 20 21 21 22 23 24
17 17 16 16 15 15 14 13 13 12 11 10 10 9 8 8 8 8 7 7 7 8 9 10 11 11 12 12 13 13 14 15 15 16 16 17 18 19 20 21 22 23 24
17 17 17 17 16 16 15 15 14 14 13 12 11 11 10 10 9 8 7 6 5 4 5 5 6 7 7 8 9 9 10 11 12 13 14 15 16 18 19 20 21 22 23
17 17 17 17 17 17 16 16 16 15 15 14 13 13 13 12 12 10 9 8 6 5 4 3 3 3 3 3 4 5 6 7 8 9 10 12 13 15 16 17 19 20 22
18 18 18 18 18 18 18 17 17 17 17 16 16 16 15 15 15 14 13 12 10 9 7 7 6 6 5 3 3 2 3 4 5 6 7 9 10 12 14 15 17 19 20
17 17 17 18 18 18 18 18 18 18 18 18 17 18 18 17 17 17 17 16 15 14 13 11 10 9 8 7 6 6 5 5 5 5 6 7 9 10 11 12 14 16 18
15 16 16 17 17 17 18 18 18 18 18 18 17 17 17 18 18 17 18 17 17 16 16 15 14 13 12 11 10 9 9 8 8 7 7 7 8 9 10 11 12 14 15
14 15 15 15 16 16 16 17 17 17 18 18 18 18 18 18 18 18 18 18 18 17 17 17 16 15 14 13 13 12 11 11 10 10 9 9 9 9 9 10 11 12 13
12 13 14 14 14 15 16 16 16 16 16 16 16 17 17 17 17 17 17 17 17 17 17 17 17 16 16 15 14 14 13 13 12 12 12 12 12 12 11 12 12 13 14
11 12 12 13 13 14 14 15 15 15 15 15 15 15 15 15 15 15 16 16 16 16 16 16 16 16 15 15 14 14 14 14 14 13 13 13 13 13 13 13 14 14 15
9 10 10 11 12 12 13 13 14 14 15 14 14 14 14 14 15 15 15 15 15 15 15 15 15 15 14 14 15 15 15 15 15 14 15 15 15 15 15 16 16 16 17
8 8 9 9 10 11 11 12 12 13 13 13 14 14 13 13 13 14 14 14 14 14 14 14 14 14 14 14 14 14 14 14 15 15 15 16 16 16 17 17 17 18 19
7 7 8 8 9 9 10 10 11 11 12 12 12 12 12 12 12 12 13 13 13 13 14 14 14 14 14 14 14 14 14 15 15 15 16 16 17 17 17 18 19 19 20

GEFSGL_500_meanwind_048.txt.gz
Wind_Speed
19 20 20 20 21 22 23 23 23 23 21 19 20 20 21 21 20 19 19 20 21 22 23 22 22 23 23 23 24 24 24 24 23 24 24 24 23 23 23 24 25 25 26
11 11 12 14 15 15 15 16 15 15 16 16 16 17 17 17 17 18 19 20 21 22 22 23 23 24 24 24 24 24 24 24 24 24 24 24 23 23 23 22 23 25 26
5 5 7 7 8 8 7 7 8 9 10 10 11 11 12 14 16 18 19 21 21 22 22 22 23 23 23 24 24 24 24 24 24 23 23 23 23 22 22 23 23 24 25
2 1 1 1 1 2 3 5 5 6 6 7 9 11 13 15 18 19 20 20 21 21 21 22 22 22 22 22 23 23 23 23 23 22 23 23 23 22 23 23 22 22 24
6 5 4 3 3 3 4 5 6 7 8 10 12 13 15 16 17 19 19 19 20 20 21 21 21 22 22 22 22 22 22 22 23 22 22 23 23 22 22 22 22 22 23
7 6 6 6 6 7 7 8 9 10 11 12 14 15 16 16 17 18 18 19 19 20 20 21 21 21 21 21 21 21 21 22 22 22 22 22 22 22 21 21 21 20 20
9 8 8 8 8 9 10 11 11 12 13 14 15 16 16 17 18 18 19 18 19 19 20 20 20 20 20 21 21 21 21 21 21 21 21 21 21 21 20 20 20 19 19
11 10 10 10 10 10 11 11 12 13 13 14 15 15 16 17 18 18 19 20 20 20 20 19 19 19 20 20 20 20 21 20 20 20 20 20 20 20 20 19 19 19 18
13 12 12 11 11 11 11 11 12 12 13 13 14 15 16 16 17 18 18 19 20 20 19 19 19 19 20 20 19 19 18 18 18 19 19 19 19 19 19 19 18 18 18
15 14 14 14 13 13 12 12 12 12 13 13 13 13 14 15 15 16 16 17 17 18 17 18 18 19 19 19 18 17 17 17 17 17 17 17 17 18 18 17 17 17 17
17 16 16 15 15 14 13 13 13 13 12 12 12 12 12 13 13 13 13 14 14 15 15 15 16 17 17 17 17 16 17 17 17 17 16 16 16 16 16 16 16 16 16
18 18 18 17 16 16 15 14 14 14 13 13 12 12 12 12 11 11 10 11 11 11 11 12 12 13 14 14 14 15 16 16 16 16 16 16 15 15 15 15 15 16 16
20 20 19 19 18 17 17 16 16 16 15 14 14 13 13 11 10 8 7 7 7 8 8 9 10 10 11 12 12 13 13 14 15 15 14 15 15 15 15 15 15 15 16
21 21 21 20 19 19 18 17 17 17 16 16 15 15 14 12 11 9 6 5 5 4 5 6 6 6 7 8 9 10 11 11 12 12 12 13 13 14 14 14 14 15 16
20 20 21 21 20 19 19 19 18 18 18 17 17 16 16 15 13 11 8 6 4 3 3 3 3 4 5 6 7 7 8 9 9 9 9 10 10 11 12 12 13 14 15
20 21 21 21 20 20 20 19 19 19 19 18 18 18 18 17 16 14 12 9 7 5 4 4 3 3 3 3 4 4 4 5 5 6 7 7 8 9 9 10 11 12 13
20 20 21 21 21 20 20 20 19 19 19 19 19 19 19 19 19 18 16 14 12 10 9 7 6 6 5 5 5 4 3 3 4 4 5 5 6 7 8 9 10 11 12
19 19 20 20 20 20 20 20 20 20 20 19 19 19 20 20 20 20 19 18 16 15 13 12 10 10 9 9 8 7 6 6 5 5 5 5 6 6 7 8 9 10 11
18 18 18 19 19 20 20 20 20 19 19 19 19 19 19 20 20 20 20 19 19 18 17 16 15 14 13 12 12 11 10 9 9 9 8 8 8 8 8 8 9 10 11
17 17 17 18 18 18 19 19 19 19 19 18 19 19 19 19 19 19 19 19 19 19 18 17 17 16 15 15 14 14 13 12 12 12 11 11 10 10 10 10 10 11 11
15 16 16 17 17 17 18 18 18 18 18 18 17 18 18 18 18 18 18 18 18 18 17 17 17 16 16 16 15 15 15 14 13 13 13 13 13 12 12 12 12 12 13
13 14 14 15 16 16 17 17 18 17 17 17 17 16 16 16 16 16 16 16 16 16 16 16 16 16 15 15 15 15 15 15 14 14 14 14 14 14 14 14 14 14 14
11 12 13 13 14 15 15 16 16 16 16 16 16 16 15 15 16 15 16 15 15 15 15 15 15 15 15 14 14 14 15 15 15 14 14 14 14 15 15 15 15 15 15
9 10 11 12 13 13 14 14 14 14 15 14 14 14 14 14 14 15 15 15 15 15 15 15 14 14 14 14 14 15 15 15 15 15 15 15 15 15 15 15 16 16 16
8 8 9 10 11 11 12 13 13 13 13 13 13 13 13 13 13 13 14 14 14 14 14 14 14 14 14 14 14 14 14 14 15 15 15 15 15 15 15 16 16 16 17
8 8 8 8 9 9 10 11 12 12 12 12 12 11 11 11 11 12 12 12 12 13 13 13 13 13 14 14 14 14 14 14 15 15 15 15 15 15 15 15 16 16 17

GEFSGL_500_meanwind_054.txt.gz
Wind_Speed
15 16 17 18 20 21 22 22 22 23 23 24 24 24 23 22 22 22 23 23 23 24 25 25 24 23 23 22 22 22 23 23 24 24 23 23 23 23 24 24 24 25 26
8 10 11 12 13 14 15 15 16 17 18 19 18 18 18 18 18 18 17 18 19 20 21 21 21 21 21 21 21 22 23 23 24 24 24 24 23 23 23 23 24 25 25
5 5 6 6 7 7 8 9 9 10 10 11 13 14 15 16 16 16 16 17 17 18 19 20 20 20 21 20 21 21 22 23 23 23 23 23 23 23 24 24 24 24 24
6 6 5 4 3 4 5 5 6 7 7 9 11 12 13 14 14 14 14 15 16 17 18 18 18 19 19 20 20 21 21 21 22 22 22 22 23 23 24 24 24 24 25
8 8 8 7 6 5 4 3 4 5 6 8 9 10 11 11 12 13 14 15 16 16 17 18 18 19 19 19 20 21 21 21 21 22 22 22 23 23 24 24 24 24 24
9 8 8 7 6 5 5 5 5 6 7 8 9 10 12 13 14 15 15 16 17 17 18 19 19 19 19 20 20 21 21 21 21 21 22 22 23 23 23 24 24 24 24
12 11 10 9 7 7 7 7 6 6 7 9 10 11 12 13 15 16 17 17 17 17 18 19 20 20 20 20 21 21 21 22 22 22 22 22 22 23 23 23 23 23 23
15 14 13 12 11 9 8 8 8 8 8 9 10 11 12 14 15 16 17 17 17 18 18 19 19 19 19 20 20 20 20 20 21 21 21 21 21 21 21 21 21 21 21
16 16 15 14 13 12 10 10 9 9 10 10 11 11 12 13 14 15 16 16 17 17 18 18 18 18 18 18 19 19 19 19 19 19 19 19 19 19 19 19 19 19 19
18 17 16 16 15 14 13 12 11 11 11 11 11 12 12 12 12 13 14 15 15 16 16 17 18 18 17 17 17 17 17 17 18 18 18 18 18 17 17 17 17 17 18
19 18 18 17 16 16 15 14 13 12 12 12 12 12 12 11 10 10 10 11 12 12 13 14 15 16 16 16 16 16 16 16 16 16 16 16 16 16 16 16 16 15 16
20 19 18 18 18 17 17 16 15 14 14 13 13 12 11 9 8 7 7 7 8 9 10 11 12 13 14 14 14 14 14 15 15 15 15 15 15 15 14 14 14 14 15
20 19 19 19 19 19 18 18 17 16 16 15 14 13 12 10 8 6 4 4 5 5 6 7 7 8 9 10 11 11 11 12 12 13 13 13 13 13 13 13 13 13 13
20 20 20 19 19 19 19 19 18 18 17 17 16 15 14 13 10 8 5 3 2 2 2 3 3 4 5 6 7 8 8 9 10 10 10 10 10 9 9 9 9 9 10
20 20 20 21 20 20 19 19 19 18 18 18 18 17 16 15 14 12 10 8 6 4 3 2 1 1 1 2 3 4 5 5 6 7 7 7 7 7 7 7 7 8 8
19 20 20 20 21 21 20 20 19 19 18 18 18 18 18 17 16 15 14 12 10 9 8 7 6 4 3 2 2 1 1 2 3 3 4 4 5 5 5 5 5 5 6
18 19 19 20 20 20 20 20 20 19 19 19 19 19 19 19 18 18 17 15 14 13 11 10 9 8 7 6 6 5 4 4 3 2 1 1 0 0 1 2 2 3 5
17 17 18 19 19 19 20 20 20 19 19 19 19 19 18 19 19 19 18 17 16 15 14 13 12 12 11 10 10 9 9 8 8 7 6 5 5 4 3 3 3 3 4
15 16 16 17 18 19 19 19 19 19 19 19 19 18 18 18 18 19 19 18 18 17 17 16 15 15 14 13 13 12 12 12 11 11 10 9 8 7 6 5 5 5 5
13 14 15 16 17 17 18 18 18 18 18 18 18 18 18 18 18 18 18 17 17 17 16 16 16 15 15 15 14 14 13 13 13 12 12 11 11 10 9 8 8 8 7
11 12 13 14 15 15 16 17 17 17 17 17 17 17 17 17 17 17 17 17 16 16 16 16 15 15 15 15 15 14 14 13 13 13 13 12 12 11 11 10 10 10 9
10 10 11 12 13 13 14 14 15 15 15 16 16 16 16 16 16 16 16 16 16 16 16 15 15 15 15 15 15 15 14 14 14 13 13 13 13 12 12 11 11 10 10
9 9 10 10 11 11 12 13 13 14 14 14 14 14 15 15 15 15 15 15 15 15 15 15 15 15 14 14 14 14 14 14 14 13 13 13 12 12 12 12 11 11 11
9 9 9 9 9 9 10 11 12 12 12 12 12 12 13 13 13 13 13 14 14 14 14 14 14 14 14 14 14 14 14 14 14 13 13 13 12 12 12 12 12 12 12
10 9 9 9 9 8 9 9 10 10 11 11 11 11 10 10 11 11 11 11 11 12 12 12 13 13 13 13 13 14 13 13 13 13 13 13 12 12 12 12 12 12 12
11 10 10 10 9 9 9 8 8 9 9 9 9 9 9 9 9 9 9 9 9 9 9 10 10 10 11 11 12 12 12 12 12 12 12 12 12 12 12 12 12 12 12

GEFSGL_500_meanwind_060.txt.gz
Wind_Speed
6 7 8 9 9 11 13 14 16 17 18 20 21 22 23 24 24 25 26 26 26 26 26 27 27 28 28 28 27 27 27 27 26 26 26 26 25 25 24 24 24 24 24
6 6 6 5 6 7 8 10 12 13 14 15 17 19 20 21 21 22 23 23 24 24 23 23 24 25 26 26 26 26 26 25 25 24 23 24 24 24 24 24 24 24 24
10 9 7 7 6 5 4 4 5 6 8 10 11 13 14 16 17 18 18 19 20 21 21 21 21 21 22 22 22 23 23 23 22 22 22 23 23 23 23 24 24 25 25
13 12 11 9 8 7 6 5 4 4 5 6 7 9 10 11 12 13 14 16 17 18 18 17 18 18 19 20 20 19 20 20 20 20 21 21 21 22 23 23 24 24 25
15 15 14 12 11 11 10 8 6 4 4 4 5 6 6 8 9 10 11 12 13 14 14 15 15 16 17 17 17 18 18 19 19 20 20 20 21 21 22 22 22 23 24
17 17 16 14 13 13 13 12 11 9 8 6 6 6 6 7 8 8 9 10 11 11 12 12 13 13 14 15 15 16 17 18 18 18 19 19 19 20 21 21 22 22 23
19 19 18 17 15 15 14 13 12 11 11 9 8 7 7 6 7 7 8 9 10 11 11 11 12 12 13 14 15 15 16 16 17 17 18 18 19 19 20 20 21 22 22
20 20 19 18 17 16 15 14 13 12 12 11 10 10 9 7 7 7 7 8 8 9 11 11 12 12 13 14 14 15 15 15 15 16 17 17 17 18 18 19 19 19 20
20 20 20 19 19 17 16 15 14 14 13 13 12 11 10 8 7 7 6 7 7 8 9 10 11 12 12 13 13 14 14 13 14 15 15 16 16 16 17 17 17 17 17
21 20 20 20 19 19 18 17 16 15 15 14 13 12 11 9 7 6 6 6 6 7 7 7 9 10 10 11 11 11 12 12 12 13 14 14 14 14 14 14 15 15 15
22 21 21 20 20 20 19 19 18 17 16 15 14 13 12 10 8 7 5 5 5 5 6 6 6 7 7 8 9 10 10 11 11 11 12 12 12 12 12 12 12 13 13
22 22 21 21 21 20 20 20 19 18 18 17 16 14 13 12 10 8 6 5 4 3 3 3 4 5 5 6 8 8 9 10 10 10 10 10 10 9 9 10 10 10 11
23 22 22 22 21 21 20 20 20 20 19 18 17 16 15 14 12 10 8 6 5 3 2 2 2 2 3 4 5 6 7 7 8 8 7 7 7 8 8 8 8 9 9
22 23 22 22 22 22 21 21 20 20 20 19 19 18 17 16 14 13 11 9 7 6 4 3 2 2 2 2 3 4 4 5 5 5 6 6 7 6 6 6 6 6 6
21 22 22 22 22 22 22 21 21 20 20 20 19 19 18 17 16 15 14 12 10 9 8 6 5 4 3 2 1 0 1 2 3 3 4 4 4 4 4 4 3 4 4
20 21 21 22 22 22 22 21 21 21 20 19 19 19 19 18 17 16 15 14 13 12 11 10 9 8 7 5 4 3 2 2 1 0 1 2 2 2 2 2 2 2 2
18 19 20 20 21 21 21 21 21 21 20 20 19 18 18 18 18 17 16 16 15 14 13 12 12 11 10 9 7 6 5 5 4 4 3 3 2 2 2 1 1 1 1
17 18 18 19 20 20 20 20 20 20 20 19 19 19 18 18 18 17 17 17 16 16 15 14 13 13 12 12 11 10 9 9 8 7 6 6 5 5 4 3 3 2 2
16 16 17 17 18 18 19 19 19 19 19 19 18 18 18 18 17 17 17 16 16 16 16 16 15 15 14 13 13 12 12 12 11 11 10 9 8 7 7 6 5 5 5
14 15 15 16 16 17 17 18 18 18 18 17 17 17 17 16 16 16 16 15 15 15 15 15 15 15 15 14 14 13 13 13 13 12 11 11 10 9 9 8 7 7 6
13 13 14 14 14 15 15 16 16 16 17 16 16 16 16 15 15 15 15 14 14 14 14 14 14 14 14 14 14 14 13 13 13 13 12 11 11 10 9 9 8 8 8
12 12 13 13 13 13 13 14 14 15 15 15 15 15 14 14 14 14 14 14 14 13 13 13 13 13 13 13 13 13 13 13 12 12 12 11 11 10 10 9 9 9 8
13 12 12 12 12 12 12 12 12 13 13 13 13 13 13 13 12 12 12 12 12 12 12 13 13 13 13 12 12 12 12 12 11 11 11 10 10 10 9 9 9 9 9
13 13 13 12 12 12 11 11 11 11 11 11 11 12 11 11 11 11 10 10 10 11 11 11 11 12 12 11 11 11 11 11 11 10 10 10 10 10 10 9 9 9 9
14 14 14 13 13 12 12 11 11 10 10 10 10 10 10 10 10 9 9 8 8 8 8 9 9 9 10 10 10 10 10 10 10 10 10 10 10 9 9 9 9 9 10
16 16 15 15 14 14 13 13 12 11 11 10 10 9 9 9 8 8 8 7 7 7 6 6 6 7 7 7 7 8 8 8 8 8 8 8 8 8 9 9 9 9 10

GEFSGL_500_meanwind_066.txt.gz
Wind_Speed
10 7 5 5 5 6 7 10 12 15 17 19 21 23 24 25 26 28 28 28 29 29 30 30 30 30 32 32 32 31 32 32 32 32 32 32 32 32 32 33 33 32 30
12 10 8 6 4 3 3 5 7 10 12 14 16 18 20 21 22 24 25 26 28 29 29 30 30 29 30 30 30 30 31 31 31 31 31 30 30 30 31 31 30 29 28
13 13 12 9 7 4 3 2 3 4 7 8 10 12 15 17 19 20 21 23 24 25 26 27 28 29 29 29 30 31 31 30 30 31 30 30 30 30 30 29 28 27 26
16 15 14 13 11 9 6 4 3 2 3 4 5 8 11 13 16 17 18 20 21 22 23 24 25 26 26 27 28 28 29 29 29 29 29 29 29 29 29 28 26 26 25
18 17 16 15 14 12 10 8 5 3 2 3 5 6 8 10 12 13 15 16 17 19 20 20 22 22 23 24 25 25 25 25 25 25 25 25 24 24 24 23 22 22 23
18 18 17 16 15 14 12 10 8 7 5 4 4 4 4 6 8 10 11 12 13 14 15 16 16 18 19 20 20 20 21 21 21 21 22 21 20 20 19 19 20 20 21
19 18 17 17 16 15 14 13 12 10 9 8 6 5 4 4 4 6 7 9 10 12 12 12 13 13 14 15 16 17 17 16 16 17 17 17 17 18 18 19 19 20 21
20 19 18 17 17 16 15 14 14 12 11 10 8 7 5 3 3 3 4 5 7 8 9 9 10 11 11 11 12 13 14 14 14 15 15 16 16 17 18 18 19 19 19
20 20 19 18 17 17 16 15 15 14 13 11 10 9 8 5 3 2 2 4 5 6 7 8 8 9 10 10 11 12 13 13 12 12 13 13 14 15 15 16 16 16 17
21 20 20 19 19 18 17 17 16 15 14 13 12 11 10 8 5 3 1 1 3 4 5 6 7 7 8 8 9 10 11 12 12 12 13 13 13 13 14 14 14 14 14
21 21 20 20 19 19 18 17 17 16 15 14 13 13 12 10 8 6 4 2 1 2 3 4 5 6 7 7 8 8 10 10 11 11 12 12 12 12 12 12 13 13 13
21 21 21 20 20 20 19 18 17 17 16 15 15 14 13 12 11 9 7 5 3 2 1 1 2 4 4 5 6 7 8 9 9 10 10 10 11 11 11 11 11 11 11
20 21 21 21 20 20 20 19 18 17 17 16 16 15 14 13 12 11 10 7 5 3 2 1 1 2 3 4 4 5 5 6 7 8 8 8 9 9 9 9 10 10 10
20 20 20 20 20 20 20 19 19 18 18 17 17 16 15 15 14 13 12 10 8 6 5 3 2 1 2 3 4 4 4 4 5 6 6 7 7 7 7 7 7 7 8
19 19 20 20 20 20 20 19 19 19 18 18 17 17 16 15 15 14 13 12 11 9 8 7 5 4 3 3 3 3 3 3 4 4 5 5 6 6 6 5 5 5 5
18 18 18 19 19 19 19 19 18 18 18 18 18 17 17 16 16 15 14 13 12 11 10 9 7 6 5 4 4 3 3 3 3 3 4 4 5 5 5 4 4 4 4
16 16 17 17 18 19 19 19 18 18 17 17 17 17 17 17 16 16 15 14 14 13 12 12 11 10 8 7 6 6 5 5 5 4 4 4 4 4 4 4 4 3 3
14 15 15 15 16 17 17 18 18 17 17 17 17 16 16 16 16 16 16 15 15 14 14 13 13 12 11 10 9 8 8 7 7 6 6 6 5 5 5 5 4 3 3
13 13 14 14 14 15 15 16 16 16 16 16 16 16 16 15 15 15 15 15 14 14 14 14 13 13 12 12 11 10 9 8 8 8 8 7 7 6 6 5 4 3 3
12 12 13 13 13 13 13 13 14 14 15 15 15 15 15 14 14 14 14 13 13 13 13 13 12 12 12 12 11 11 10 10 9 9 8 8 7 6 5 5 4 3 3
11 11 11 12 12 12 12 12 12 12 13 13 13 13 13 13 13 13 12 12 12 12 12 11 11 11 10 10 10 10 10 10 9 9 8 7 6 6 5 4 4 4 3
10 10 10 11 11 11 11 11 11 11 10 11 11 11 12 12 11 11 11 11 11 11 11 10 10 10 9 9 9 8 8 8 7 7 7 6 6 5 4 4 4 3 3
11 11 10 10 10 10 10 10 10 10 10 9 9 9 10 10 10 9 9 8 8 8 8 9 8 8 8 8 7 7 7 6 6 5 5 4 4 3 3 3 3 3 2
12 12 11 11 11 11 10 10 10 10 9 9 8 8 8 8 8 8 7 6 6 6 6 6 6 6 6 6 6 5 5 4 4 4 3 3 3 3 3 2 2 1 1
14 14 13 13 12 12 12 11 11 10 10 10 9 9 8 8 7 7 7 6 5 5 4 3 3 3 3 3 3 3 3 2 2 2 1 1 1 1 0 0 1 2 2
17 16 16 15 15 14 14 13 13 12 12 11 11 11 10 10 9 8 8 7 7 6 6 5 5 4 4 4 3 3 3 3 3 3 2 2 2 2 3 3 4 4 5

GEFSGL_500_meanwind_072.txt.gz
Wind_Speed
16 14 13 12 10 8 7 7 8 9 10 12 14 15 17 19 21 23 25 25 25 27 28 29 29 30 31 32 33 32 31 31 31 31 30 30 30 30 29 28 29 30 30
17 16 15 15 12 10 9 7 6 6 6 7 8 10 12 14 16 18 20 22 22 23 24 25 26 27 28 28 29 29 29 29 28 29 29 28 27 26 26 26 26 28 29
19 17 17 16 14 13 11 10 8 6 5 5 6 7 8 11 12 14 16 18 19 19 21 23 24 25 26 26 27 28 28 28 28 28 27 27 27 27 26 26 25 26 27
20 19 18 18 16 15 14 12 10 9 7 6 5 6 7 8 9 11 13 14 15 17 19 20 21 22 23 24 25 26 27 27 28 28 28 27 26 25 25 25 25 25 26
22 21 20 18 18 17 15 14 12 11 9 8 7 6 5 6 8 9 11 12 14 16 17 19 20 20 21 21 22 23 24 25 26 26 26 26 25 24 24 23 23 23 24
22 22 21 20 19 18 18 16 14 13 12 10 9 7 6 6 7 7 9 11 12 13 14 15 16 17 18 19 20 22 22 22 22 23 23 23 23 22 23 23 23 21 21
22 22 22 21 21 20 19 18 17 16 14 12 11 10 8 6 5 5 6 7 8 10 11 12 13 15 15 16 17 18 19 20 20 21 20 20 19 20 21 20 20 19 19
23 23 22 22 21 21 21 19 18 17 16 14 13 11 10 9 6 6 4 3 4 5 7 8 10 11 12 13 13 14 15 16 17 17 18 17 17 17 16 15 15 15 15
23 23 23 22 22 22 22 21 19 18 17 17 15 14 12 11 9 8 6 4 3 3 4 5 5 6 7 8 10 11 13 15 15 14 14 13 13 12 12 12 12 12 12
23 23 23 23 23 23 23 22 21 20 19 18 17 16 14 13 12 10 8 6 4 2 2 2 3 2 3 4 6 7 9 10 11 11 11 11 11 10 10 10 10 10 10
23 24 23 23 23 23 23 23 22 21 20 19 18 18 17 15 14 13 11 8 6 5 4 2 1 1 1 1 2 4 5 6 7 8 9 9 9 10 9 9 10 10 10
22 23 23 23 23 23 22 22 22 22 21 20 19 18 18 17 15 14 12 11 9 7 6 4 3 2 1 1 1 2 3 5 5 6 8 8 9 9 9 9 8 9 9
21 22 22 22 22 22 22 22 22 21 21 20 19 19 18 17 16 15 13 12 10 9 7 6 5 4 3 3 2 2 2 3 4 5 6 7 7 8 7 8 8 8 8
20 20 20 21 21 21 22 21 21 21 21 21 19 19 18 18 17 16 14 13 12 11 10 9 8 7 5 5 4 4 4 4 4 4 5 5 6 6 6 6 6 6 6
18 18 19 19 20 20 21 21 21 21 21 21 20 20 19 18 18 17 16 14 13 12 11 10 9 8 7 7 6 5 5 5 5 5 4 4 4 4 4 4 4 5 4
16 17 17 18 18 18 19 20 20 20 20 20 20 20 19 19 18 17 16 15 14 13 12 11 10 9 9 8 8 7 6 6 5 5 4 4 3 3 3 3 3 3 3
14 15 15 16 16 16 17 18 18 19 19 19 19 19 19 19 18 17 17 16 15 15 13 12 12 11 10 9 9 8 7 6 6 5 4 4 3 3 2 2 2 2 2
13 13 14 14 15 15 15 15 16 16 17 17 17 18 18 18 18 17 17 16 16 15 14 13 12 11 11 10 10 9 8 7 6 5 4 4 3 3 2 2 2 1 1
11 12 12 12 13 13 14 14 14 14 15 15 16 16 16 16 16 16 16 15 15 14 14 13 13 12 11 10 9 9 8 7 7 6 5 4 4 3 3 2 2 1 0
11 11 11 11 11 12 12 12 13 13 13 13 13 14 14 14 14 14 14 14 13 12 12 12 12 11 11 10 9 9 8 8 7 6 5 4 4 3 2 2 2 1 1
11 11 11 11 11 11 11 11 11 11 11 11 11 12 12 12 12 12 12 12 11 11 11 10 10 10 9 9 9 8 7 7 6 5 4 4 3 3 3 2 2 2 1
12 12 12 12 11 11 11 11 11 11 10 10 10 10 10 10 9 9 9 9 9 9 9 8 8 8 7 7 7 6 6 5 5 4 3 3 3 3 3 2 2 2 2
15 14 13 13 13 12 12 12 11 11 11 10 10 10 9 9 8 8 8 7 7 6 6 6 5 5 5 5 5 4 4 4 4 4 3 3 3 3 3 3 3 3 3
17 17 16 15 15 14 14 14 13 13 12 12 11 11 10 9 9 8 8 7 7 7 6 5 5 4 4 4 4 4 4 4 4 4 4 4 4 4 4 4 4 4 5
20 20 19 18 17 17 16 16 15 15 15 14 13 13 12 12 11 10 10 9 9 9 8 8 7 7 7 6 6 6 6 6 6 6 6 6 6 6 6 6 6 7 7
24 23 23 22 21 20 20 19 18 18 17 17 17 16 16 15 14 14 13 13 12 12 12 11 11 11 11 11 11 10 10 10 10 10 10 10 10 9 9 9 10 10 11

GEFSGL_500_meanwind_078.txt.gz
Wind_Speed
20 19 17 16 14 11 9 8 5 5 6 7 9 11 14 17 19 21 24 27 28 29 29 29 30 32 32 34 35 35 35 35 34 34 34 34 33 32 32 31 30 29 30
20 19 18 17 16 14 12 10 8 6 5 5 6 7 9 11 14 17 19 22 25 26 27 27 27 29 30 31 32 32 33 33 32 32 31 31 31 30 30 30 28 27 27
22 21 20 19 17 15 14 12 10 8 7 6 4 5 7 9 11 13 16 18 21 23 25 25 26 26 27 28 29 30 29 29 29 30 29 28 29 29 29 29 29 28 26
23 22 21 21 19 17 15 14 12 10 8 7 5 4 4 6 9 11 12 15 17 19 20 20 21 22 24 24 24 25 26 27 27 28 28 27 27 27 27 27 27 27 27
23 23 22 22 21 19 18 16 15 13 11 8 6 4 2 3 4 6 9 11 12 15 17 18 18 19 21 22 23 24 24 25 26 26 26 26 25 26 26 25 26 26 26
23 23 23 22 22 21 20 19 17 16 13 11 9 7 5 4 2 3 5 6 9 11 14 15 15 16 17 19 21 22 22 23 25 25 25 25 25 25 25 25 25 25 24
24 23 23 22 22 22 21 20 19 18 16 14 11 9 8 7 5 3 1 3 6 8 10 11 12 13 14 15 16 18 20 21 22 23 23 24 23 24 24 24 24 23 23
23 23 23 23 23 22 21 20 20 19 18 16 14 12 10 9 8 6 3 1 2 4 6 7 8 9 11 12 14 15 16 18 19 20 21 21 22 22 22 22 22 22 22
23 23 23 23 23 23 22 21 20 19 19 18 16 15 13 12 10 8 6 4 2 0 3 5 6 7 8 9 11 13 14 14 16 17 18 18 19 19 19 19 19 20 20
23 23 23 23 23 23 22 22 21 20 19 18 18 17 15 13 11 10 8 6 5 3 2 2 3 4 5 7 8 10 11 12 13 15 16 16 16 17 17 17 17 17 16
21 22 22 22 22 22 22 22 21 20 20 19 18 17 17 16 14 12 10 9 7 6 4 3 3 3 3 5 6 6 7 8 10 12 13 14 14 15 15 15 14 13 13
20 20 21 21 21 21 22 22 22 21 20 20 19 18 18 17 15 14 12 11 10 8 7 6 5 4 4 4 5 5 6 7 8 9 11 11 11 11 11 12 12 11 11
19 19 20 20 20 21 21 21 21 21 20 20 19 19 18 17 16 15 14 12 11 10 9 7 6 6 5 5 5 6 7 7 7 8 9 10 10 10 10 10 10 10 10
17 18 18 19 19 19 20 20 20 20 20 19 19 19 18 18 17 15 14 13 12 10 9 9 8 7 7 7 6 6 7 7 7 7 7 8 8 9 9 9 9 9 9
15 16 16 17 17 17 18 18 19 19 19 19 18 18 18 17 17 16 15 14 13 12 11 10 9 9 8 8 7 6 6 6 6 7 7 7 7 7 7 7 8 8 7
13 14 14 15 15 16 16 16 17 17 17 17 17 17 16 16 16 15 14 14 13 12 12 11 11 10 10 9 9 8 8 7 7 6 6 6 6 6 6 6 6 6 6
13 13 13 13 13 14 14 14 15 15 15 15 16 15 15 15 15 14 14 13 13 12 12 12 11 11 10 9 9 8 8 8 7 6 6 6 6 5 5 5 5 5 5
13 12 12 12 12 12 13 13 13 13 13 14 14 14 13 13 13 13 13 12 12 11 11 10 10 10 10 9 8 8 7 7 6 6 6 5 4 4 3 3 3 4 4
14 13 13 12 12 11 11 11 12 12 11 11 11 11 11 11 11 11 10 10 10 10 9 9 9 8 8 7 7 6 6 6 5 5 4 4 3 2 2 2 2 2 3
16 15 14 13 13 12 11 11 11 11 10 10 9 9 9 9 9 9 8 8 8 7 7 7 7 6 6 5 5 5 5 4 3 3 2 2 1 1 1 1 2 2 3
19 18 16 15 14 14 13 12 11 11 10 10 9 9 8 8 7 7 7 6 6 5 5 5 4 4 4 3 3 3 3 2 2 1 0 0 1 1 2 2 3 3 3
22 20 19 18 17 16 15 14 13 12 11 11 10 9 9 8 7 7 6 6 5 5 4 4 3 2 2 1 1 1 1 1 1 1 2 2 2 3 3 3 4 4 4
26 24 23 21 20 19 18 17 16 14 13 12 12 11 10 10 9 8 8 7 7 6 6 5 5 4 4 4 4 4 4 4 4 4 4 4 4 4 4 5 5 5 5
29 28 26 25 24 22 21 20 19 18 17 15 14 14 13 12 12 11 11 10 10 9 9 9 8 8 7 7 7 7 7 7 7 7 7 7 7 7 7 7 7 8 8
34 32 30 29 28 26 25 23 22 21 20 19 18 17 17 16 15 14 14 13 13 12 12 11 11 11 11 11 10 10 11 11 11 11 11 11 11 11 11 11 11 11 11
38 36 35 33 32 30 29 28 26 25 24 23 22 21 20 20 19 18 17 17 16 16 15 15 15 15 14 14 14 14 14 14 14 15 15 15 15 15 15 15 15 15 15

GEFSGL_500_meanwind_084.txt.gz
Wind_Speed
23 22 21 20 18 16 15 12 10 8 7 7 8 9 11 14 16 19 21 23 25 27 29 31 34 34 34 35 35 35 35 35 35 35 36 36 37 37 36 35 34 34 33
24 23 22 21 20 19 17 14 12 10 9 8 7 8 9 10 12 14 17 20 22 24 26 27 30 31 30 30 32 33 33 33 33 34 34 34 35 35 35 35 35 34 33
24 24 22 21 21 21 19 17 14 13 11 10 8 7 7 8 9 11 13 16 18 20 22 24 27 28 28 28 28 29 31 31 32 33 34 34 34 34 34 33 33 33 32
25 25 24 23 22 22 21 19 17 15 14 12 10 8 6 6 6 7 9 11 13 16 18 20 23 24 24 25 26 26 27 29 30 32 34 34 33 33 34 33 32 32 32
25 25 25 25 24 23 23 22 20 17 15 14 12 10 8 6 5 5 7 9 11 13 15 17 19 20 20 22 23 25 25 26 28 29 29 31 31 31 32 32 32 31 30
25 25 25 25 25 25 24 23 22 20 18 16 15 13 10 7 5 4 4 6 7 10 12 14 16 17 18 19 21 22 22 23 24 26 27 28 29 29 29 30 29 29 30
25 25 25 25 25 25 25 24 23 22 20 18 17 15 12 9 6 5 3 2 4 6 8 11 13 15 16 17 18 19 20 21 22 23 25 26 26 27 27 26 26 27 27
24 25 25 25 25 25 25 25 24 24 23 22 21 20 16 13 10 7 6 4 1 3 5 8 10 13 14 14 15 16 17 18 19 20 21 22 23 24 23 24 24 24 23
24 24 24 24 24 25 24 24 24 23 23 22 21 20 18 15 12 9 7 6 4 2 2 4 6 8 10 11 13 15 16 16 17 18 18 19 20 21 21 22 22 22 21
22 23 24 23 23 24 24 24 24 23 22 22 21 20 18 16 14 12 10 8 6 4 2 1 2 4 6 7 9 10 12 13 14 15 15 16 17 19 19 19 19 19 19
21 21 22 23 23 23 23 23 23 23 22 22 21 20 18 16 15 14 12 10 9 7 5 3 1 1 2 4 6 7 7 9 10 12 13 14 15 16 16 16 16 16 16
19 20 20 21 22 22 22 22 22 22 22 21 21 20 19 18 16 15 13 12 11 9 7 5 3 3 2 2 3 4 5 7 7 9 11 12 12 13 13 13 14 14 14
18 18 19 19 20 21 21 21 21 21 21 21 20 19 19 18 17 16 15 13 11 11 9 7 6 5 4 4 3 3 3 4 5 7 8 9 9 10 11 12 11 11 11
18 18 18 18 18 19 19 19 19 20 19 19 19 18 17 17 17 16 15 15 13 12 11 10 9 8 7 7 6 5 5 5 5 5 6 7 8 8 9 10 10 10 10
18 18 18 17 17 17 17 18 18 18 17 17 17 17 16 15 15 15 14 14 13 12 11 10 10 9 8 7 6 5 5 5 4 5 5 5 5 5 6 7 8 8 8
19 18 18 17 17 17 16 16 16 16 16 15 15 15 15 14 13 13 13 13 12 11 10 9 9 8 8 7 6 6 5 4 4 4 4 4 3 3 3 5 6 6 7
20 19 18 18 17 17 16 16 15 15 14 14 13 13 12 12 11 11 11 11 10 10 10 9 7 7 6 6 5 5 4 4 3 3 3 3 2 2 2 3 4 5 6
21 21 20 19 19 18 17 16 15 15 14 13 12 12 11 10 10 9 8 8 8 8 7 7 6 6 5 5 4 3 3 3 3 2 2 2 2 2 2 3 4 4 5
24 23 22 22 21 20 19 18 17 15 14 13 13 12 11 10 9 8 7 6 6 5 5 5 4 4 4 3 3 3 2 2 2 2 1 1 1 2 3 4 4 4 5
27 26 25 24 23 22 21 20 19 18 16 15 14 13 12 10 9 8 7 6 6 5 4 4 3 2 2 1 1 1 0 0 1 1 1 1 2 2 3 4 4 5 6
31 30 29 27 26 25 24 23 22 21 19 18 17 15 14 13 11 10 9 8 8 7 6 5 5 4 4 4 3 3 2 2 3 3 3 3 4 4 4 5 5 6 6
35 34 32 31 30 29 27 26 25 24 23 21 20 18 17 16 15 13 12 11 10 10 9 9 8 7 7 7 6 6 6 6 6 6 6 6 6 6 6 7 7 7 7
39 37 36 35 34 33 31 30 29 28 26 25 24 22 21 19 18 17 16 15 14 13 12 12 11 11 10 10 9 9 9 9 9 9 9 9 9 9 9 9 9 9 10
43 42 40 39 38 37 35 34 33 31 30 29 28 26 25 24 22 21 20 19 17 16 16 15 15 14 14 14 13 12 12 12 12 12 12 12 12 12 12 12 12 12 12
46 45 44 43 42 41 39 38 37 35 34 33 31 30 29 28 26 25 24 23 21 20 19 19 18 18 17 17 17 16 16 15 15 15 15 15 15 15 15 15 15 15 15
50 50 49 48 47 46 44 43 41 40 38 37 35 34 33 32 30 29 28 27 26 24 23 22 22 21 20 20 20 20 19 19 19 19 18 18 18 18 18 17 17 17 17

GEFSGL_500_meanwind_090.txt.gz
Wind_Speed
24 24 24 23 22 21 19 17 16 15 12 10 9 8 8 10 12 14 16 18 21 24 27 29 30 31 32 33 34 34 34 35 36 37 36 35 36 36 36 37 37 36 36
25 25 25 25 24 22 21 19 18 17 15 13 10 8 6 6 8 10 13 15 17 20 23 25 28 29 31 31 33 34 34 35 35 35 36 36 36 36 35 36 36 37 37
26 25 25 25 25 24 22 21 21 19 17 15 12 9 6 4 5 7 10 12 14 16 19 22 24 26 27 29 30 32 33 33 34 33 34 35 36 35 35 35 36 36 35
25 25 25 25 25 25 23 22 22 21 20 18 14 11 7 4 3 4 7 8 10 12 15 18 21 23 24 26 29 31 32 33 33 33 33 33 35 36 36 36 35 34 34
25 25 25 25 25 25 24 23 23 22 21 19 17 13 10 7 4 3 4 6 7 9 12 15 17 19 21 23 25 28 29 31 31 31 32 32 33 33 33 33 34 34 34
24 24 24 25 26 26 25 24 23 23 23 22 19 16 12 9 7 5 3 3 5 7 9 12 14 16 17 19 21 24 26 28 29 29 30 30 30 30 31 31 31 32 32
23 23 23 24 25 25 25 24 24 24 23 23 22 18 15 11 9 7 5 3 3 4 6 8 11 13 15 16 17 20 22 24 25 26 26 27 28 28 28 29 29 30 29
22 22 23 23 24 24 24 24 24 23 23 23 22 20 17 14 12 9 7 5 3 3 4 6 8 10 11 14 15 17 19 21 24 25 24 25 27 27 26 27 28 28 29
21 21 22 22 23 23 23 23 23 23 23 22 22 21 19 17 14 12 10 8 6 4 2 3 6 8 9 10 12 14 16 18 21 21 20 21 24 24 24 25 26 27 27
20 20 21 21 22 22 22 22 22 22 22 21 21 20 19 17 16 14 11 10 8 6 3 1 2 4 5 7 9 11 13 14 17 18 18 18 19 21 21 22 23 24 25
19 20 20 20 21 21 21 21 21 21 21 20 20 20 19 18 16 15 13 12 10 7 5 2 1 1 2 5 7 8 9 11 13 15 15 16 17 18 19 19 20 21 21
19 19 20 20 20 19 20 20 20 20 19 19 19 19 18 18 17 15 14 13 11 9 7 4 3 1 0 2 3 4 6 8 10 11 12 13 14 16 16 17 18 19 19
20 19 19 19 19 19 18 19 19 19 19 18 18 18 17 17 16 15 14 12 12 10 8 6 4 2 1 0 2 3 4 6 8 9 10 11 11 12 13 14 15 16 17
20 20 20 19 19 19 18 18 18 18 18 17 17 17 16 15 15 14 13 12 11 10 8 7 5 4 2 1 1 2 3 4 6 8 8 8 9 10 11 12 13 13 14
21 21 21 20 20 19 19 18 17 17 17 17 16 16 15 14 14 13 12 11 10 9 8 7 5 3 3 2 0 1 2 4 5 6 7 7 8 9 9 9 10 12 13
22 22 22 21 21 20 19 19 18 18 17 17 16 16 15 14 13 12 12 11 10 9 8 6 5 4 3 2 1 1 3 3 4 5 7 7 8 8 8 9 9 10 10
24 23 23 23 22 21 21 20 19 19 18 17 17 16 15 14 13 12 11 10 9 8 7 6 4 3 2 2 1 1 2 3 4 5 6 6 7 8 9 9 9 9 9
26 25 25 24 24 23 22 22 21 20 19 19 18 17 16 15 14 13 12 11 10 9 8 7 5 4 3 2 2 2 3 3 4 5 6 7 7 7 7 8 8 8 9
28 27 27 27 26 25 25 24 24 23 22 21 20 19 18 17 17 15 15 14 13 11 10 9 8 7 6 5 4 4 4 5 6 6 7 7 8 8 8 8 8 9 9
31 30 30 30 29 29 28 27 26 26 25 24 23 22 21 20 19 19 18 17 16 15 13 12 11 11 9 8 8 7 7 7 7 8 8 8 8 9 9 9 9 9 9
33 33 33 33 32 32 32 31 30 29 28 28 27 26 24 23 22 22 21 20 19 18 17 16 16 15 14 13 12 11 11 11 11 11 11 11 11 10 10 11 11 11 11
36 36 36 36 35 35 35 35 34 33 32 32 31 30 29 27 26 26 25 24 23 22 21 20 20 19 18 17 17 16 15 15 14 14 14 14 14 14 13 13 13 14 14
39 39 39 39 39 38 38 38 38 37 37 36 35 34 33 32 31 30 29 28 27 27 26 25 24 23 23 22 21 20 19 19 18 18 18 18 17 17 17 17 17 17 17
41 41 42 42 42 41 41 41 41 41 41 40 39 39 38 37 35 35 34 33 32 31 30 29 28 28 27 26 25 24 23 23 22 22 22 21 21 21 20 20 20 19 19
44 44 45 45 45 45 45 45 45 45 45 44 44 43 42 41 40 39 38 38 37 36 35 34 32 32 31 30 29 28 27 27 26 25 25 24 24 23 23 22 22 22 21
46 47 47 48 48 48 48 48 49 49 49 49 48 48 47 47 45 44 43 42 41 40 39 38 37 36 35 34 33 32 32 31 30 29 28 27 27 26 26 25 25 24 23

GEFSGL_500_meanwind_096.txt.gz
Wind_Speed
25 26 26 26 25 24 23 22 21 20 19 17 14 12 9 7 7 8 10 12 14 17 19 21 23 25 27 29 30 31 31 31 31 31 32 32 33 33 34 35 35 34 34
25 26 26 26 25 25 24 23 22 21 21 19 16 13 11 8 6 6 7 9 11 14 16 18 20 22 24 26 28 29 30 30 30 30 30 31 32 34 33 33 34 34 33
25 25 26 25 26 25 25 25 24 23 22 20 18 16 13 10 7 5 5 6 8 10 12 15 17 19 22 24 26 27 28 29 30 30 30 30 30 31 31 31 31 31 32
24 25 26 25 25 25 25 25 24 24 23 22 20 18 15 11 9 6 5 4 5 6 8 11 14 16 19 21 23 25 26 27 28 29 30 30 30 31 31 31 31 31 31
23 24 25 25 25 25 25 25 25 24 24 22 21 20 17 14 11 8 7 5 4 5 7 9 12 13 16 18 20 22 24 25 27 28 28 30 31 31 30 30 29 29 30
22 23 24 24 25 25 24 24 25 24 24 23 21 20 18 16 14 11 8 7 6 5 6 8 10 11 13 15 17 19 20 22 24 26 27 28 29 29 29 29 29 30 29
21 22 23 23 24 24 24 24 25 25 24 23 22 20 19 17 16 14 11 9 8 7 7 7 8 9 11 13 15 17 18 19 20 22 24 25 26 28 27 27 28 29 29
21 22 22 23 23 23 23 24 24 24 24 23 22 21 19 18 17 16 14 12 10 8 8 7 6 7 8 10 12 13 14 15 17 19 21 22 23 24 25 26 27 27 28
20 21 21 22 22 22 23 23 23 23 23 23 22 20 19 19 18 17 15 13 12 10 9 7 6 6 6 8 9 11 13 14 15 17 18 20 21 22 23 24 25 25 26
20 21 21 21 22 22 22 22 22 22 22 22 21 20 19 19 18 17 16 15 13 11 10 8 7 6 6 6 8 9 10 11 13 14 15 17 18 20 21 22 23 23 23
20 20 21 21 21 21 21 21 22 21 21 21 20 20 19 18 18 17 17 16 15 13 11 10 8 7 6 7 7 7 9 10 11 12 13 14 16 17 18 20 21 21 21
21 21 21 21 21 21 21 21 21 21 21 20 20 20 19 18 18 17 16 16 15 14 12 11 9 8 7 7 7 7 7 7 9 10 12 12 13 15 16 18 19 19 20
21 21 22 22 22 22 21 21 21 20 20 20 20 19 19 18 18 17 16 15 15 14 13 11 10 10 9 8 7 7 7 7 7 8 9 11 12 14 15 16 18 19 19
23 23 23 23 22 22 22 21 21 21 20 20 19 19 18 18 17 17 16 15 15 14 14 13 11 11 10 9 8 7 7 7 7 7 8 9 10 11 13 14 15 16 17
25 25 24 24 24 23 23 22 22 21 21 20 20 19 18 18 17 17 16 15 15 14 13 13 12 11 11 10 9 8 7 7 7 7 7 7 8 9 10 11 13 14 15
27 27 26 26 25 25 24 24 23 23 22 22 21 21 20 19 18 17 17 16 16 15 14 14 13 12 12 11 11 10 9 9 8 8 8 9 9 9 10 11 12 12 12
29 29 28 28 28 27 27 26 25 24 24 24 24 23 22 21 20 20 19 18 17 16 16 15 14 14 13 12 12 11 11 10 9 9 9 10 10 10 10 10 10 11 11
31 31 31 30 30 30 29 29 28 27 26 26 26 25 25 24 23 22 21 21 20 19 18 17 16 16 15 14 13 13 12 11 11 11 10 10 10 11 11 12 12 12 12
33 33 32 32 32 32 32 31 31 30 30 29 28 28 27 27 27 26 25 24 23 22 21 20 19 18 17 16 16 15 14 13 13 13 13 13 13 13 13 14 14 14 13
34 34 34 34 34 34 34 34 33 33 32 32 31 31 30 29 29 29 28 28 27 26 25 24 23 22 21 20 19 18 17 17 16 16 16 16 16 16 16 15 16 16 16
35 36 36 36 36 36 35 35 35 35 35 34 34 34 34 33 32 32 31 31 31 30 29 28 27 26 25 24 24 23 22 21 21 20 20 19 19 19 18 18 18 18 18
38 38 37 37 37 37 37 37 38 37 37 37 37 37 37 37 36 36 35 35 35 34 33 33 32 31 30 29 28 27 26 26 25 25 24 23 23 22 22 22 21 21 21
39 39 39 39 39 39 40 40 40 40 40 40 40 40 40 40 39 39 39 39 39 38 38 37 36 36 35 34 33 32 31 30 30 29 28 28 27 26 26 26 26 25 24
41 41 41 41 41 41 41 41 41 41 41 42 42 43 43 43 42 42 43 43 42 42 42 41 41 41 40 40 38 37 37 36 35 34 33 33 32 31 30 29 29 28 27
43 42 42 42 42 42 42 42 42 43 43 44 44 45 45 45 46 46 46 46 46 46 46 45 45 45 45 45 44 43 42 41 41 40 39 38 36 35 34 33 32 32 31
44 44 43 43 43 43 44 44 44 45 46 46 47 47 48 48 49 49 49 49 50 50 50 50 50 49 49 49 48 47 47 46 46 45 44 42 41 40 39 38 37 36 35

GEFSGL_500_meanwind_102.txt.gz
Wind_Speed
23 24 24 24 24 24 23 22 21 21 20 18 16 13 11 8 6 6 5 6 8 12 15 18 20 22 23 25 26 27 29 29 29 30 31 32 32 33 34 34 35 36 37
22 23 24 24 24 24 23 23 22 21 20 19 17 15 13 11 8 6 5 4 5 7 11 14 17 19 21 23 25 27 28 29 29 30 31 31 32 32 33 34 34 36 35
21 22 23 24 24 23 23 23 22 21 20 19 18 17 15 12 9 8 6 4 4 5 7 9 12 15 18 20 22 25 26 28 29 29 30 32 32 31 32 32 33 34 35
21 22 23 23 24 23 23 23 22 21 20 19 18 18 16 14 11 9 8 6 4 3 4 6 9 12 15 18 19 22 24 25 27 28 29 30 31 31 32 32 32 33 34
20 21 22 22 23 23 23 23 22 21 21 19 18 17 17 15 13 11 9 8 6 4 3 4 6 9 12 14 16 18 21 23 25 26 26 28 29 29 30 31 31 33 33
20 20 21 21 22 23 23 23 22 21 21 20 19 18 16 16 14 12 10 9 7 5 4 4 4 6 9 11 13 16 18 20 22 23 24 25 26 28 29 30 30 31 31
19 20 20 21 21 22 22 22 22 21 21 20 19 18 16 15 14 13 11 10 9 8 6 4 4 4 6 8 11 13 15 17 19 20 21 22 23 25 27 28 30 30 30
19 20 20 21 21 21 21 21 21 21 20 20 19 18 17 15 14 13 12 11 10 9 8 6 5 4 5 7 9 11 12 15 17 18 19 21 22 23 24 26 27 29 30
19 20 20 20 21 21 21 21 21 21 20 20 19 18 17 15 14 14 13 12 11 10 9 7 6 5 5 6 8 9 11 13 14 16 17 19 21 22 23 24 25 26 28
20 20 20 21 21 21 21 21 21 20 20 19 19 18 17 16 14 13 13 12 11 11 10 8 7 7 7 6 7 8 10 11 13 14 16 18 19 21 22 23 24 26 26
20 21 21 21 21 21 21 21 20 20 19 19 19 18 17 16 15 14 13 13 12 11 11 9 8 8 8 7 7 7 8 10 11 13 15 16 18 19 21 22 23 24 25
21 21 22 22 21 21 21 21 21 20 20 19 19 18 18 16 15 15 14 13 12 12 12 11 11 10 9 9 9 9 9 10 11 13 14 16 17 19 19 20 21 23 24
22 22 23 23 23 22 22 22 22 21 21 20 19 19 18 17 17 16 15 14 13 13 13 13 12 11 11 10 10 10 10 10 11 12 14 15 16 16 18 18 19 20 22
23 24 24 24 24 24 24 23 23 23 22 22 21 20 19 19 18 18 17 16 15 14 14 13 13 12 12 12 11 11 11 11 11 12 13 14 15 15 16 17 18 19 20
25 25 26 26 26 26 26 25 25 24 24 23 23 22 21 20 20 19 19 18 17 17 16 16 15 14 14 14 13 13 13 13 13 13 13 13 14 15 16 17 17 18 20
26 27 27 27 27 27 27 27 27 26 26 25 24 23 23 22 22 21 21 20 20 19 19 18 18 17 16 16 16 15 15 15 15 15 15 15 15 15 16 16 17 18 19
28 27 28 28 27 27 27 27 28 28 28 27 26 25 25 25 24 23 23 22 22 21 21 21 21 20 20 19 18 18 18 18 17 17 17 16 16 16 16 17 18 18 19
29 29 29 29 29 29 29 28 28 28 29 29 29 28 27 27 27 27 26 25 25 25 24 24 24 24 23 22 22 21 21 21 20 20 19 19 18 18 18 18 18 19 19
31 31 31 31 31 31 31 31 31 31 30 30 30 30 30 30 30 29 29 28 28 28 27 27 27 27 27 26 26 25 25 24 24 23 23 22 22 22 21 22 22 22 21
33 33 33 33 33 33 34 34 34 34 33 32 32 32 32 32 32 31 31 31 31 31 30 30 30 30 30 30 29 29 29 28 27 27 26 26 26 25 25 25 24 24 24
35 35 35 35 35 35 35 35 35 35 35 35 34 34 33 33 33 33 33 34 34 34 34 33 33 33 33 33 33 32 32 32 31 31 30 30 30 29 29 28 28 28 28
36 36 36 36 37 37 37 37 37 36 36 35 35 35 35 35 35 35 35 36 36 37 37 37 37 37 36 36 36 36 36 36 35 35 35 35 34 34 34 33 32 32 32
37 38 38 38 38 38 38 38 37 37 37 36 36 36 37 37 37 38 38 38 39 40 40 40 41 41 41 41 41 40 40 40 40 40 40 39 39 39 39 38 37 37 36
39 39 39 40 40 39 39 38 38 38 38 38 38 39 39 39 40 40 41 41 42 42 43 43 44 44 44 45 45 45 45 45 45 45 45 44 44 44 43 43 42 41 41
40 40 41 41 40 40 40 40 40 40 40 40 41 41 41 42 42 43 43 44 44 45 45 46 47 47 48 48 48 49 49 49 49 49 49 49 48 48 48 48 47 46 45
42 41 41 41 41 41 41 41 41 42 42 42 42 43 43 44 45 45 46 46 46 47 48 50 50 51 51 51 51 51 51 51 52 52 53 53 52 52 52 52 51 51 50

GEFSGL_500_meanwind_108.txt.gz
Wind_Speed
21 22 23 24 24 24 24 23 22 20 19 18 17 15 13 11 9 7 6 5 6 8 10 11 13 15 17 19 21 22 24 25 27 28 30 30 30 33 34 35 35 35 36
20 21 22 23 23 24 24 24 23 21 20 19 18 16 14 12 10 8 6 5 5 5 7 9 11 13 15 18 20 22 23 24 25 27 28 29 29 31 32 33 34 34 35
20 21 21 22 23 23 23 23 22 22 21 20 19 17 15 13 11 9 7 6 5 5 6 7 9 11 13 15 18 21 23 24 24 26 26 27 27 29 31 32 33 33 34
19 20 21 21 22 22 22 22 22 21 21 20 19 17 16 14 12 10 8 6 5 5 5 5 7 8 10 12 15 17 20 22 23 24 25 25 26 27 28 30 30 32 34
18 19 20 21 21 21 21 21 21 21 20 20 19 18 16 15 13 11 10 8 7 7 6 6 5 6 8 10 11 13 16 19 21 22 23 24 24 25 26 28 29 29 30
17 18 19 20 21 21 21 20 20 20 20 19 18 17 16 15 14 12 11 10 9 9 8 7 6 6 6 8 10 12 13 16 18 19 21 22 23 25 26 27 28 28 28
17 18 18 19 20 20 20 20 20 20 20 19 18 17 16 15 14 13 12 11 10 10 9 8 7 6 6 7 8 10 11 13 16 18 20 20 22 24 24 25 27 27 27
17 17 18 19 19 19 19 19 19 19 19 19 18 18 17 15 14 13 12 12 11 10 10 9 8 7 7 7 8 9 10 12 15 17 19 20 20 21 23 24 25 26 27
17 17 18 18 19 19 19 18 18 18 18 18 18 17 16 16 15 14 13 12 11 11 10 10 9 9 8 8 8 9 10 12 13 14 17 19 19 20 21 22 23 24 24
17 18 18 18 19 19 18 18 18 18 18 18 17 17 16 15 15 14 14 14 13 12 11 10 10 10 10 10 10 10 11 11 12 13 15 17 18 19 20 21 22 23 24
18 18 18 19 19 19 19 19 18 19 18 18 18 17 16 16 15 15 14 14 14 13 13 12 12 11 11 11 11 11 12 13 13 14 15 17 18 19 20 20 21 22 23
18 18 19 19 19 19 19 19 19 19 19 18 18 18 17 17 16 16 15 15 15 14 14 13 13 13 12 12 12 12 12 13 13 15 15 16 18 19 20 21 22 22 23
19 19 20 20 20 20 20 20 20 20 19 19 19 18 18 18 18 17 17 16 16 15 15 15 14 14 14 13 13 13 13 14 14 15 16 17 18 19 20 21 22 23 24
20 20 21 21 21 21 21 21 21 21 20 21 21 20 20 20 19 19 19 18 18 17 17 16 16 16 15 15 15 15 16 16 17 17 17 18 19 19 20 21 22 22 23
22 22 22 22 22 22 22 22 22 22 22 22 22 22 22 21 21 21 20 20 20 20 19 19 18 18 18 17 17 18 18 18 19 19 20 20 21 21 22 22 23 24 24
23 23 23 23 23 23 24 24 24 24 24 24 24 24 24 24 23 23 22 22 21 21 21 21 21 21 21 21 21 21 21 21 21 22 22 23 23 23 24 24 25 26 26
25 25 25 25 25 25 25 26 26 26 26 26 26 26 25 25 25 24 24 24 23 23 23 22 22 22 23 23 23 23 24 24 24 24 24 25 25 26 26 26 27 27 27
27 26 26 27 27 27 27 28 28 28 28 28 28 28 27 27 26 26 26 26 25 25 25 25 24 24 24 24 25 25 26 27 27 27 27 27 27 28 28 29 29 29 30
29 29 29 29 29 29 30 30 30 30 30 30 30 30 29 29 28 28 28 28 27 27 27 27 27 27 27 27 28 28 29 29 29 30 30 30 30 30 31 31 31 31 31
31 31 31 31 31 31 31 32 31 31 31 31 31 31 31 31 30 30 30 30 30 30 30 30 30 29 30 30 31 32 32 32 32 33 33 34 34 34 34 34 34 34 34
33 34 33 33 33 33 33 33 33 33 33 32 33 33 33 32 32 32 32 32 32 32 32 33 33 33 34 34 34 35 35 35 36 37 37 37 38 38 38 38 38 38 38
36 36 36 35 35 35 35 35 35 35 35 34 35 34 34 34 34 34 34 34 34 34 35 35 36 36 37 37 38 38 39 39 39 40 40 41 41 42 42 42 42 42 41
38 38 38 37 37 37 37 37 37 37 37 37 36 36 36 36 36 36 36 36 37 37 38 38 38 39 39 40 41 41 42 42 43 43 43 43 44 45 45 45 45 45 45
40 40 39 39 39 39 39 39 39 38 38 38 38 38 37 37 38 38 38 39 39 39 40 40 40 41 42 43 44 45 45 46 46 47 47 46 46 47 47 47 47 47 47
43 42 42 42 41 41 41 40 40 40 40 40 40 40 40 40 40 40 41 40 40 41 41 42 42 43 44 45 46 47 48 48 49 49 49 49 49 48 48 48 48 48 48
44 44 44 43 42 42 42 42 41 41 41 41 41 41 42 42 42 43 43 42 42 43 43 44 45 46 47 48 48 49 49 50 50 50 50 50 50 50 50 49 49 49 50